Pagina principale
METAR-TAF:

METAR-TAF

Aeroporti :

Taunton Municipal Airport (King Field)

Taunton, Massachusetts, Stati Uniti

latitudine: 41-52-32N, longitudine: 071-01-16W, altezza: 13 m

Osservazione

Il bollettino è stato emesso 17 minuti fa, alle 02:52 UTC
Vento calmo
Temperature 3°C
Umidità 93%
Pressione 1023 hPa
Visibilità: 16.1 km
Nuvoloso ad un'altezza di 6000 ft
Cielo coperto ad un'altezza di 10000 ft

METAR: KTAN 230252Z AUTO 00000KT 10SM BKN060 OVC100 03/02 A3020 RMK AO2 SLP228 T00330022 51004

Ora: 23:09 (03:09 UTC)


TAF: mancante

Osservazioni e previsioni meteorologiche di più di 4000 aeroporti (messaggi METAR e TAF).

Le stazioni disponibili sono rappresentate dai dischi gialli e rossi sulla carta.

Puntare il mouse per vedere il nome della stazione.

Clicca sopra per visualizzare le osservazioni e previsioni meteorologiche.

Per cambiare la mappa : fare clic sui pulsanti verdi con una croce nera per ingrandire, il pulsante verde con un trattino per diminuire, o sulla freccia verde per le mappe adiacenti.


METAR-TAF: